Skip Page Navigation
NASA JPL Caltech
NASA Logo - Jet Propulsion Laboratory + View the NASA Portal
+ Center for Near-Earth Object Studies
JPL Home Earth Solar System Stars & Galaxies Technology
JPL Solar System Dynamics
BODIES ORBITS EPHEMERIDES TOOLS PHYSICAL DATA DISCOVERY FAQ SITE MAP
JPL Small-Body Database Browser
Search: [ help ]  
461665 (2005 GM179)
Classification: Main-belt Asteroid          SPK-ID: 2461665
Ephemeris | Orbit Diagram | Orbital Elements | Mission Design | Physical Parameters | Discovery Circumstances ]

[ show orbit diagram ]
Orbital Elements at Epoch 2459000.5 (2020-May-31.0) TDB
Reference: JPL 15 (heliocentric ecliptic J2000)
 Element Value Uncertainty (1-sigma)   Units 
e .1561628551713767 8.2071e-08  
a 2.397575966245269 1.8156e-08 au
q 2.023163657866136 1.9155e-07 au
i 9.986303867204947 8.2444e-06 deg
node 35.68738253579695 3.5959e-05 deg
peri 170.8203219250406 4.3291e-05 deg
M 23.2155172045758 2.02e-05 deg
tp 2458913.055428415482
(2020-Mar-04.55542842)
7.5972e-05 TDB
period 1355.991576367794
3.71
1.5403e-05
4.217e-08
d
yr
n .2654883749088681 3.0157e-09 deg/d
Q 2.771988274624403 2.0991e-08 au
  Orbit Determination Parameters
   # obs. used (total)      118  
   data-arc span      5516 days (15.10 yr)  
   first obs. used      2005-03-18  
   last obs. used      2020-04-24  
   planetary ephem.      DE431  
   SB-pert. ephem.      SB431-N16  
   condition code      0  
   norm. resid. RMS      .61002  
   source      ORB  
   producer      Otto Matic  
   solution date      2020-May-22 04:18:29  

Additional Information
 Earth MOID = 1.01899 au 
 Jupiter MOID = 2.18809 au 
 T_jup = 3.491 
[ show covariance matrix ]

Ephemeris | Orbit Diagram | Orbital Elements | Mission Design | Physical Parameters | Discovery Circumstances ]

Physical Parameter Table
Parameter Symbol Value Units Sigma Reference Notes
absolute magnitude H 17.3   n/a MPO419228  

461665 (2005 GM179)          Discovered 2005-Mar-18 by CSS at Catalina
Reference: Last Updated: 2016-03-24

Alternate Designations
 2005 GM179 = 2012 BM27 
Ephemeris | Orbit Diagram | Orbital Elements | Mission Design | Physical Parameters | Discovery Circumstances ]
ABOUT SSD CREDITS/AWARDS PRIVACY/COPYRIGHT GLOSSARY LINKS
FirstGov 2020-Jul-04 04:06 UT
(server date/time)  
NASA Home Page
Site Manager:   Ryan S. Park
Webmaster  Alan B. Chamberlin